Regional Weather Roundup
Issued by NWS

Home | Current Version | Previous Version | Graphics & Text | Print | Product List | Glossary On
Versions: 1 2 3 4 5 6 7 8 9 10 11 12 13 14 15 16 17 18 19 20 21 22 23 24 25 26 27 28 29 30 31 32 33 34 35 36 37 38 39 40 41 42 43 44 45 46 47 48 49 50
309
ASUS45 KBOI 101810
RWRID

IDAHO REGIONAL WEATHER ROUNDUP
NATIONAL WEATHER SERVICE BOISE ID
1100 AM MST SAT DEC 10 2016

NOTE: "FAIR" INDICATES FEW OR NO CLOUDS BELOW 12000 FEET
WITH NO SIGNIFICANT WEATHER AND/OR OBSTRUCTIONS TO VISIBILITY

IDZ012-014-101900-
SOUTHWEST IDAHO


CITY           SKY/WX    TMP DP  RH WIND       PRES   REMARKS
BOISE          FOG       34  33  96 CALM      29.88R VSB 1/2
CALDWELL       CLOUDY    33  32  96 SE5       29.89R FOG     WCI  29
MOUNTAIN HOME  DRIZZLE   38  38 100 S5        29.88R FOG     WCI  34
$$

IDZ016-017-101900-
SOUTHCENTRAL IDAHO


CITY           SKY/WX    TMP DP  RH WIND       PRES   REMARKS
BURLEY         LGT RAIN  38  35  89 SW15      29.86R WCI  29
JEROME         CLOUDY    38  38 100 SW6       29.87S FOG     WCI  33
TWIN FALLS     LGT RAIN  39  37  92 SW3       29.86R
$$

IDZ019>023-101900-
SOUTHEAST IDAHO


CITY           SKY/WX    TMP DP  RH WIND       PRES   REMARKS
IDAHO FALLS    LGT RAIN  34  32  92 SW18      29.82R WCI  23
POCATELLO      LGT RAIN  37  34  89 SW15      29.87R WCI  28
REXBURG        MIX PCPN  34  33  96 SW15G26   29.78S WCI  24
$$

IDZ006-010-011-018-031-032-101900-
CENTRAL IDAHO MOUNTAINS


CITY           SKY/WX    TMP DP  RH WIND       PRES   REMARKS
MCCALL         CLOUDY    33  28  81 VRB3      29.77R
HAILEY         CLOUDY    34  34 100 E12       29.81F WCI  25
STANLEY          N/A     33  29  85 CALM      29.77F
SALMON         CLOUDY    19  18  93 CALM      29.75F
CHALLIS        CLOUDY    25  23  92 N6        29.71F WCI  18
$$

IDZ002-004-006-007-026-101900-
NORTHERN IDAHO


CITY           SKY/WX    TMP DP  RH WIND       PRES   REMARKS
LEWISTON       CLOUDY    26  22  84 S3        29.96R
LOWELL         NOT AVBL
COEUR D`ALENE  CLOUDY    21  17  84 S3        29.90R
MULLAN PASS    SNOW      16  15  96 VRB3      29.65R VSB<1/4
$$




USA.gov is the U.S. government's official web portal to all federal, state and local government web resources and services.